This is the latest recevied weather packets stored in our database for station/object KM5R. If no packets are shown the sender has not sent any weather packets the latest 10 day(s).
| Time | Temp. | Humidity | Pressure | Rain* | Wind** | Luminosity | Snow |
|---|---|---|---|---|---|---|---|
| 1777905358 | 19.44° C | 72% | 1015.7 hPa | 0 mm | - | 368 W/m² | - |
| 1777905056 | 19.44° C | 72% | 1015.7 hPa | 0 mm | - | 340 W/m² | - |
| 1777904753 | 19.44° C | 72% | 1015.5 hPa | 0 mm | - | 353 W/m² | - |
| 1777904450 | 18.33° C | 75% | 1015.5 hPa | 0 mm | - | 296 W/m² | - |
| 1777904146 | 18.33° C | 75% | 1015.5 hPa | 0 mm | - | 280 W/m² | - |
| 1777903843 | 18.33° C | 75% | 1015.3 hPa | 0 mm | - | 260 W/m² | - |
| 1777903540 | 17.78° C | 75% | 1015.5 hPa | 0 mm | - | 218 W/m² | - |
| 1777903236 | 17.78° C | 75% | 1015.5 hPa | 0 mm | - | 168 W/m² | - |
| 1777902932 | 17.78° C | 76% | 1015.7 hPa | 0 mm | - | 214 W/m² | - |
| 1777902630 | 17.78° C | 76% | 1015.7 hPa | 0 mm | - | 228 W/m² | - |
| 1777902327 | 17.78° C | 76% | 1015.4 hPa | 0 mm | - | 185 W/m² | - |
| 1777902024 | 17.22° C | 76% | 1015.7 hPa | 0 mm | - | 198 W/m² | - |
| 1777901722 | 17.78° C | 76% | 1015.6 hPa | 0 mm | - | 87 W/m² | - |
| 1777901419 | 17.22° C | 76% | 1015.7 hPa | 0 mm | - | 163 W/m² | - |
| 1777901117 | 17.22° C | 76% | 1015.6 hPa | 0 mm | - | 169 W/m² | - |
| 1777900814 | 17.22° C | 76% | 1015.7 hPa | 0 mm | - | 141 W/m² | - |
| 1777900511 | 17.22° C | 77% | 1015.8 hPa | 0 mm | - | 138 W/m² | - |
| 1777900208 | 17.22° C | 77% | 1015.6 hPa | 0 mm | - | 120 W/m² | - |
| 1777899904 | 16.67° C | 77% | 1015.4 hPa | 0 mm | - | 103 W/m² | - |
| 1777899601 | 16.67° C | 78% | 1015.5 hPa | 0 mm | - | 96 W/m² | - |
| 1777899299 | 16.67° C | 78% | 1015.5 hPa | 0 mm | - | 89 W/m² | - |
| 1777898996 | 16.11° C | 79% | 1015.6 hPa | 0 mm | - | 80 W/m² | - |
| 1777898693 | 16.11° C | 79% | 1015.6 hPa | 0 mm | - | 72 W/m² | - |
| 1777898390 | 15.56° C | 79% | 1015.5 hPa | 0 mm | - | 57 W/m² | - |
| 1777898088 | 15.56° C | 79% | 1015.4 hPa | 0 mm | - | 47 W/m² | - |
* Rain latest hour (hover to see other rain measurements)
** Current wind speed in m/s (hover to see current wind gust speed)